Theta_e
340 338 338 338 337 337 337 339 341 340 340 338 337 335 336 334 333 334 333 333 332 330
338 338 336 338 339 338 339 337 338 338 338 336 335 336 336 333 333 334 333 333 333 331
337 337 337 338 337 338 337 337 336 336 336 335 335 335 335 333 334 332 332 331 332 332
335 336 337 337 337 337 337 335 334 333 333 333 334 335 334 334 332 330 333 333 332 332
335 336 336 336 336 336 335 334 333 333 332 332 333 334 333 332 331 330 330 329 330 325
334 335 335 335 335 335 334 333 333 333 332 332 333 333 333 332 331 329 326 325 321 324
333 334 335 335 334 334 334 333 333 333 332 332 332 332 333 332 331 329 327 325 326 325
333 334 334 334 332 333 334 334 333 333 333 334 333 331 332 331 331 331 326 325 325 325
332 333 334 334 333 333 333 334 333 332 333 333 329 303 308 323 331 330 327 324 325 324
332 331 332 333 332 332 334 335 332 330 332 332 330 302 303 309 331 330 330 325 324 322
331 330 331 332 332 332 333 333 333 332 332 331 323 301 302 307 332 329 328 326 324 321
330 330 331 331 331 331 331 330 330 330 329 330 327 301 301 316 328 326 326 326 324 322
331 331 331 332 331 331 332 330 327 328 328 313 329 301 301 316 326 323 321 320 320 306
332 332 333 332 332 331 329 326 326 327 328 326 324 314 302 307 326 323 322 320 319 316
Wind_Speed
11 8 8 9 8 6 6 6 8 6 6 5 6 6 6 5 5 6 7 8 6 5
9 10 9 9 8 7 7 6 7 7 7 7 7 7 7 5 7 6 7 6 7 6
10 10 10 9 9 8 7 7 8 8 8 8 7 7 7 6 5 5 4 4 5 5
10 10 10 8 8 8 8 8 8 8 8 8 7 6 5 5 5 4 5 5 5 5
10 9 9 8 8 8 8 8 8 8 7 7 6 6 5 5 4 4 4 4 5 3
10 9 8 8 8 8 9 8 8 7 7 6 6 6 4 3 5 4 3 4 4 4
10 8 7 8 8 8 8 8 8 7 6 6 5 4 4 4 5 5 5 3 2 3
9 8 8 8 8 7 8 7 7 7 6 5 5 3 5 4 5 6 6 4 3 4
9 8 8 7 8 8 8 7 7 6 6 6 4 4 1 2 4 6 7 5 5 4
9 9 8 8 9 8 7 7 8 6 5 6 5 4 2 3 5 4 4 4 4 4
9 9 8 8 8 7 5 6 7 7 5 5 5 1 5 5 5 4 4 4 4 4
10 10 9 9 8 6 7 7 6 5 5 4 6 5 5 5 6 5 4 4 4 4
10 10 9 9 8 6 6 6 6 5 4 3 6 4 3 4 5 5 4 4 4 5
10 9 9 9 7 7 6 6 5 6 5 5 4 4 4 7 5 4 4 4 4 3
Wind_Direction
135 141 147 146 147 144 151 154 155 157 156 155 166 172 177 186 200 196 208 207 215 216
135 142 138 136 138 140 140 144 160 159 158 166 172 175 177 191 194 200 204 211 211 223
139 136 133 137 135 143 143 150 149 148 163 168 165 171 176 177 166 186 195 212 206 213
131 129 130 131 140 141 145 147 150 158 166 157 160 172 167 161 168 189 210 210 215 216
133 134 133 136 141 147 143 146 151 160 160 156 158 169 179 170 168 189 200 168 187 183
139 141 141 140 143 147 143 151 157 158 156 165 169 170 172 171 161 158 144 148 147 162
146 146 145 142 147 152 157 159 154 149 162 157 159 161 146 166 157 172 152 181 141 156
143 140 140 143 152 154 161 158 144 151 149 134 142 107 127 141 169 164 145 154 177 181
142 145 149 155 160 159 163 157 154 160 164 154 112 42 65 162 150 147 160 168 181 151
150 150 154 158 160 157 172 144 148 146 184 126 107 26 140 160 151 155 169 160 162 154
158 152 159 157 150 151 159 154 145 144 143 132 90 64 130 166 134 138 151 156 136 142
158 159 160 154 140 143 147 141 131 144 137 135 106 103 143 169 120 116 97 103 126 139
164 164 161 138 135 150 148 139 140 132 116 62 114 114 180 149 127 119 109 97 93 64
168 163 147 134 145 151 142 129 131 127 119 94 81 84 130 137 134 132 128 121 103 89